N. Danzl, A. Gleason (Spacewatch Outer Solar System Survey)
軌道要素
The following orbital elements are taken from MPC 35068:
Epoch 1995 Sept. 20.0 TT = JDT 2449980.5 Marsden
M 180.21705 (2000.0) P Q
n 0.00861662 Peri. 49.32750 -0.96890200 +0.24229922
a 23.5637755 Node 144.61090 -0.24501777 -0.91110401
e 0.6631306 Incl. 4.97274 -0.03457178 -0.33343751
P 114 H 6.0 G 0.15
From 14 observations 1995 Sept. 20-Oct. 26. E-assumed.